#�ϑ�����,���ϕ���,���ϕ���,�ő啗��,�ő啗����������,�ő�u�ԕ���,�ő�u�ԕ�����������
#(�N����),(m/s)   ,(16����),(m/s)   ,(16����)        ,(m/s)       ,(16����)            
2018/1/3 0:01,1.7,11,1.7,11,2.5,9
2018/1/3 0:02,1.6,11,1.7,11,1.6,15
2018/1/3 0:03,1.6,11,1.6,11,3.3,12
2018/1/3 0:04,1.5,11,1.6,11,2.6,13
2018/1/3 0:05,1.4,11,1.5,11,2.2,11
2018/1/3 0:06,1.3,11,1.4,11,1.4,8
2018/1/3 0:07,1.3,11,1.3,11,2.9,9
2018/1/3 0:08,1.4,11,1.4,11,3.5,11
2018/1/3 0:09,1.4,11,1.4,11,2.2,9
2018/1/3 0:10,1.3,11,1.4,11,2,8
2018/1/3 0:11,1.2,11,1.3,11,2.9,10
2018/1/3 0:12,1.2,11,1.2,11,2.2,13
2018/1/3 0:13,1,11,1.2,11,2.2,12
2018/1/3 0:14,1.1,11,1.1,11,1.6,12
2018/1/3 0:15,1.1,11,1.1,11,1.9,12
2018/1/3 0:16,1.1,11,1.1,11,1.3,8
2018/1/3 0:17,1,11,1.1,11,1.9,9
2018/1/3 0:18,0.9,11,1,11,2.1,11
2018/1/3 0:19,0.8,12,0.9,11,1.6,2
2018/1/3 0:20,0.9,12,0.9,11,2.7,1
2018/1/3 0:21,1,13,1,11,2.5,2
2018/1/3 0:22,1,14,1,11,1.9,1
2018/1/3 0:23,1,15,1,11,0.9,16
2018/1/3 0:24,0.9,15,1,11,1.4,10
2018/1/3 0:25,0.9,16,0.9,11,1.3,10
2018/1/3 0:26,0.9,16,0.9,11,1.5,1
2018/1/3 0:27,1,16,1,11,2.9,16
2018/1/3 0:28,1,1,1,12,1.5,2
2018/1/3 0:29,1,1,1,12,1.5,1
2018/1/3 0:30,0.9,1,1,12,0.8,4
2018/1/3 0:31,0.8,1,0.9,13,0.8,6
2018/1/3 0:32,0.7,1,0.8,14,0.4,10
2018/1/3 0:33,0.8,2,0.8,15,2.4,4
2018/1/3 0:34,0.8,2,0.8,16,2.4,4
2018/1/3 0:35,0.8,2,0.8,16,1.1,2
2018/1/3 0:36,0.8,2,0.8,16,2.6,9
2018/1/3 0:37,0.8,4,0.8,16,2.5,9
2018/1/3 0:38,0.8,5,0.8,1,2.5,9
2018/1/3 0:39,0.8,7,0.8,1,2.6,9
2018/1/3 0:40,0.8,7,0.8,1,0.9,10
2018/1/3 0:41,0.9,7,0.9,8,2,9
2018/1/3 0:42,1.1,7,1.1,7,2.9,9
2018/1/3 0:43,1.1,8,1.1,7,3,7
2018/1/3 0:44,1.1,8,1.1,7,2.2,8
2018/1/3 0:45,1.1,9,1.1,7,2.2,8
2018/1/3 0:46,1.2,9,1.2,9,3.3,9
2018/1/3 0:47,1.3,9,1.3,9,3.8,8
2018/1/3 0:48,1.2,9,1.3,9,1.9,8
2018/1/3 0:49,1.2,9,1.2,9,2.5,11
2018/1/3 0:50,1.4,9,1.4,9,4.5,9
2018/1/3 0:51,1.4,9,1.4,9,4.4,9
2018/1/3 0:52,1.5,9,1.5,9,4.9,10
2018/1/3 0:53,1.5,9,1.6,9,3.5,10
2018/1/3 0:54,1.7,9,1.7,9,4.2,10
2018/1/3 0:55,2,9,2,9,5.5,9
2018/1/3 0:56,2.2,9,2.2,9,6.5,10
2018/1/3 0:57,2.3,9,2.3,9,6.5,9
2018/1/3 0:58,2.5,9,2.5,9,6.2,9
2018/1/3 0:59,2.7,9,2.7,9,5.7,9
2018/1/3 1:00,2.8,9,2.8,9,7.5,10
2018/1/3 1:01,2.9,9,3,9,7.2,10
2018/1/3 1:02,2.8,9,2.9,9,3.7,10
2018/1/3 1:03,2.8,10,2.8,9,2.1,15
2018/1/3 1:04,2.7,10,2.7,9,3.2,16
2018/1/3 1:05,2.4,11,2.6,9,3.1,15
2018/1/3 1:06,2.4,11,2.5,9,5.8,15
2018/1/3 1:07,2.1,11,2.3,9,1,12
2018/1/3 1:08,1.9,12,2.1,9,2.2,14
2018/1/3 1:09,1.8,12,1.9,9,3.9,12
2018/1/3 1:10,1.7,12,1.8,9,2.9,11
2018/1/3 1:11,1.9,13,1.9,9,7.9,12
2018/1/3 1:12,1.8,13,1.9,9,5.6,13
2018/1/3 1:13,1.8,13,1.8,10,3,8
2018/1/3 1:14,1.7,13,1.8,10,1.5,2
2018/1/3 1:15,1.9,13,1.9,11,6.8,13
2018/1/3 1:16,2,12,2,11,4.1,12
2018/1/3 1:17,2.2,12,2.2,12,6,9
2018/1/3 1:18,2.4,12,2.4,12,9.5,12
2018/1/3 1:19,2.7,12,2.7,12,10.7,12
2018/1/3 1:20,3.1,12,3.1,12,8.2,12
2018/1/3 1:21,3.1,12,3.2,12,7.2,13
2018/1/3 1:22,3.3,12,3.3,12,6,13
2018/1/3 1:23,3.5,12,3.5,12,5.6,12
2018/1/3 1:24,3.8,12,3.8,12,8.4,14
2018/1/3 1:25,3.7,12,3.8,12,4.9,14
2018/1/3 1:26,3.5,13,3.6,12,3.5,15
2018/1/3 1:27,3.4,13,3.5,12,5.4,16
2018/1/3 1:28,3.3,13,3.5,12,3.9,14
2018/1/3 1:29,3,13,3.3,12,3.8,16
2018/1/3 1:30,2.7,14,3,12,4.4,12
2018/1/3 1:31,2.5,14,2.7,12,6.1,13
2018/1/3 1:32,2.6,14,2.6,12,8.2,16
2018/1/3 1:33,2.5,14,2.6,12,7.9,15
2018/1/3 1:34,2.5,14,2.5,12,6.2,16
2018/1/3 1:35,2.5,14,2.5,12,5.7,16
2018/1/3 1:36,2.7,15,2.7,13,6.7,16
2018/1/3 1:37,2.8,15,2.8,13,6.7,16
2018/1/3 1:38,2.8,15,2.8,13,4.8,14
2018/1/3 1:39,2.8,15,2.8,13,5.5,15
2018/1/3 1:40,2.9,14,2.9,15,4.9,14
2018/1/3 1:41,3,14,3,14,5.7,13
2018/1/3 1:42,3.1,14,3.1,14,6.4,12
2018/1/3 1:43,3.1,14,3.1,14,5.2,12
2018/1/3 1:44,3.2,14,3.2,14,6.1,12
2018/1/3 1:45,3.1,13,3.2,14,7,10
2018/1/3 1:46,3,12,3.2,14,4.4,9
2018/1/3 1:47,3,12,3,14,6.9,10
2018/1/3 1:48,3.4,12,3.4,12,11.4,11
2018/1/3 1:49,3.7,11,3.7,11,10.2,10
2018/1/3 1:50,4,11,4,11,11,12
2018/1/3 1:51,3.9,11,4.1,11,6.7,10
2018/1/3 1:52,3.9,11,4,11,7.5,10
2018/1/3 1:53,4.1,10,4.1,11,6.7,10
2018/1/3 1:54,4.1,10,4.2,10,7.2,10
2018/1/3 1:55,4.2,10,4.2,10,5.8,11
2018/1/3 1:56,4.4,10,4.4,10,8.3,11
2018/1/3 1:57,4.6,10,4.6,10,7.7,12
2018/1/3 1:58,4.4,11,4.5,10,7.1,11
2018/1/3 1:59,4.2,11,4.4,10,6.2,10
2018/1/3 2:00,3.8,11,4.1,10,2.6,12
2018/1/3 2:01,3.7,11,3.8,10,5.6,9
2018/1/3 2:02,3.6,11,3.7,10,5.7,11
2018/1/3 2:03,3.3,11,3.6,10,3.3,15
2018/1/3 2:04,3.2,11,3.3,10,5,13
2018/1/3 2:05,3.3,12,3.3,10,6.1,12
2018/1/3 2:06,3.2,12,3.2,10,6.5,13
2018/1/3 2:07,2.9,12,3.2,10,2.5,12
2018/1/3 2:08,2.7,12,2.9,11,3.2,9
2018/1/3 2:09,2.6,11,2.6,11,5.5,11
2018/1/3 2:10,2.9,11,2.9,11,7.4,10
2018/1/3 2:11,3,11,3,11,8.1,11
2018/1/3 2:12,3,11,3,11,6.8,10
2018/1/3 2:13,3.1,11,3.1,11,4.9,11
2018/1/3 2:14,3,11,3.1,12,4.1,10
2018/1/3 2:15,2.9,11,3,12,4.4,13
2018/1/3 2:16,2.8,11,2.9,12,4.2,14
2018/1/3 2:17,2.7,11,2.8,11,2.2,11
2018/1/3 2:18,2.6,12,2.7,11,0.9,3
2018/1/3 2:19,2.4,11,2.6,11,0.5,6
2018/1/3 2:20,2.1,11,2.3,11,3.5,7
2018/1/3 2:21,1.7,11,2.1,11,1.4,7
2018/1/3 2:22,1.5,10,1.7,11,1.5,10
2018/1/3 2:23,1.3,10,1.5,11,1.3,14
2018/1/3 2:24,1.2,10,1.3,11,2.2,12
2018/1/3 2:25,1,10,1.2,11,2.1,12
2018/1/3 2:26,0.9,9,1,11,2,7
2018/1/3 2:27,0.9,9,0.9,12,1.6,10
2018/1/3 2:28,0.9,10,0.9,12,2.4,11
2018/1/3 2:29,1,11,1,11,1.6,11
2018/1/3 2:30,1,11,1,11,1.9,12
2018/1/3 2:31,1,11,1,10,2,12
2018/1/3 2:32,1.1,11,1.1,10,2.7,12
2018/1/3 2:33,1.2,12,1.2,10,1.9,13
2018/1/3 2:34,1.1,12,1.2,10,1.3,12
2018/1/3 2:35,1.2,12,1.2,12,2.2,11
2018/1/3 2:36,1.1,12,1.2,12,1,11
2018/1/3 2:37,1,12,1.1,12,0.5,11
2018/1/3 2:38,0.9,12,1,12,0.8,10
2018/1/3 2:39,0.8,12,0.9,12,0.4,12
2018/1/3 2:40,0.7,12,0.8,12,1,13
2018/1/3 2:41,0.7,12,0.7,12,1.1,8
2018/1/3 2:42,0.7,11,0.7,12,2.4,8
2018/1/3 2:43,0.6,11,0.7,12,1.8,8
2018/1/3 2:44,0.5,11,0.6,12,0.1,1
2018/1/3 2:45,0.5,11,0.5,12,1.9,16
2018/1/3 2:46,0.6,12,0.6,12,2.6,16
2018/1/3 2:47,0.7,13,0.7,12,2.4,16
2018/1/3 2:48,0.8,13,0.8,12,1.1,9
2018/1/3 2:49,0.8,12,0.8,12,2,10
2018/1/3 2:50,1,11,1,11,3.1,12
2018/1/3 2:51,1,13,1.1,12,1.5,12
2018/1/3 2:52,0.9,14,1,12,1.1,2
2018/1/3 2:53,0.9,15,0.9,12,1.5,3
2018/1/3 2:54,1.1,15,1.1,12,3.5,15
2018/1/3 2:55,1,15,1.1,12,2,14
2018/1/3 2:56,0.9,16,1,12,0.9,3
2018/1/3 2:57,0.8,16,0.9,12,0.8,15
2018/1/3 2:58,0.9,15,0.9,12,2.5,15
2018/1/3 2:59,1,15,1,12,2.7,14
2018/1/3 3:00,1.1,15,1.1,12,3.5,12
2018/1/3 3:01,1.2,15,1.2,15,2.7,11
2018/1/3 3:02,1.2,14,1.2,15,1.8,11
2018/1/3 3:03,1.1,13,1.2,15,1.1,11
2018/1/3 3:04,1,13,1.1,15,1,14
2018/1/3 3:05,1,13,1,15,1.3,9
2018/1/3 3:06,1,12,1,15,0.9,10
2018/1/3 3:07,1.1,12,1.1,15,1.6,3
2018/1/3 3:08,1.2,12,1.2,15,2.7,3
2018/1/3 3:09,1.1,12,1.1,15,1.8,3
2018/1/3 3:10,0.9,15,1.1,15,1.9,4
2018/1/3 3:11,0.9,1,0.9,14,2.6,16
2018/1/3 3:12,1.1,1,1.1,14,5.1,15
2018/1/3 3:13,1.4,1,1.4,1,7.5,16
2018/1/3 3:14,1.6,1,1.6,1,4.4,15
2018/1/3 3:15,1.6,1,1.6,1,1.9,12
2018/1/3 3:16,1.8,16,1.8,1,3.2,11
2018/1/3 3:17,1.9,16,1.9,16,4.4,9
2018/1/3 3:18,1.8,14,1.8,16,2.7,12
2018/1/3 3:19,2,12,2,13,4.8,10
2018/1/3 3:20,2.3,12,2.3,12,4.9,11
2018/1/3 3:21,2.4,11,2.4,12,4.7,9
2018/1/3 3:22,2.3,10,2.4,12,2.7,9
2018/1/3 3:23,1.9,10,2.2,12,1.4,7
2018/1/3 3:24,1.8,10,1.9,12,1.9,8
2018/1/3 3:25,1.9,9,1.9,12,2.9,10
2018/1/3 3:26,1.9,9,1.9,12,2.6,8
2018/1/3 3:27,1.9,9,1.9,12,4.3,9
2018/1/3 3:28,2.1,9,2.1,12,4.2,9
2018/1/3 3:29,1.9,9,2,12,2.9,9
2018/1/3 3:30,1.6,9,1.9,12,1.5,8
2018/1/3 3:31,1.4,9,1.6,11,1.1,9
2018/1/3 3:32,1.3,9,1.4,10,0.6,7
2018/1/3 3:33,1.3,8,1.3,9,2,6
2018/1/3 3:34,1.3,8,1.3,9,1,6
2018/1/3 3:35,1.1,7,1.3,9,0.8,3
2018/1/3 3:36,1,7,1.1,9,1.8,10
2018/1/3 3:37,0.9,7,1,9,2,10
2018/1/3 3:38,0.7,7,0.9,9,1.5,11
2018/1/3 3:39,0.6,7,0.7,9,1.5,10
2018/1/3 3:40,0.7,8,0.7,9,2.4,11
2018/1/3 3:41,0.8,8,0.8,9,2.7,8
2018/1/3 3:42,0.9,9,0.9,9,2.4,9
2018/1/3 3:43,0.9,9,0.9,8,3.7,9
2018/1/3 3:44,0.9,10,0.9,8,2.7,11
2018/1/3 3:45,1.1,10,1.1,7,4.1,9
2018/1/3 3:46,1.3,10,1.3,10,3.6,9
2018/1/3 3:47,1.4,10,1.4,10,4.2,8
2018/1/3 3:48,1.6,10,1.6,10,3,8
2018/1/3 3:49,1.6,10,1.6,10,2.2,11
2018/1/3 3:50,1.5,10,1.6,10,2,13
2018/1/3 3:51,1.4,10,1.5,10,0.9,9
2018/1/3 3:52,1.4,10,1.4,10,0.5,11
2018/1/3 3:53,1.2,10,1.4,10,0.1,7
2018/1/3 3:54,1.2,10,1.2,10,1.6,14
2018/1/3 3:55,1.1,11,1.2,10,1.6,13
2018/1/3 3:56,1,11,1.1,10,1.9,11
2018/1/3 3:57,0.8,11,1,10,1.1,11
2018/1/3 3:58,0.7,12,0.8,10,0.9,11
2018/1/3 3:59,0.5,11,0.7,10,0.6,10
2018/1/3 4:00,0.5,11,0.5,10,1,4
2018/1/3 4:01,0.5,11,0.5,10,1,4
2018/1/3 4:02,0.5,11,0.5,10,0.8,10
2018/1/3 4:03,0.5,10,0.5,10,0.5,8
2018/1/3 4:04,0.5,10,0.5,10,0.1,14
2018/1/3 4:05,0.4,8,0.4,11,0.1,3
2018/1/3 4:06,0.3,7,0.3,11,0.5,5
2018/1/3 4:07,0.2,6,0.3,11,0.3,5
2018/1/3 4:08,0.3,6,0.3,12,1.6,9
2018/1/3 4:09,0.3,6,0.3,11,1.8,7
2018/1/3 4:10,0.5,7,0.5,11,2.2,6
2018/1/3 4:11,0.5,7,0.5,11,1.6,6
2018/1/3 4:12,0.6,6,0.6,6,2,4
2018/1/3 4:13,0.8,6,0.8,6,3.2,5
2018/1/3 4:14,1,5,1,5,3.6,13
2018/1/3 4:15,1.4,6,1.4,6,4.9,11
2018/1/3 4:16,1.6,6,1.6,6,5.2,14
2018/1/3 4:17,1.8,6,1.8,6,3.8,16
2018/1/3 4:18,1.9,4,1.9,4,4.9,2
2018/1/3 4:19,2.1,2,2.1,3,6,2
2018/1/3 4:20,2.2,1,2.2,2,5.2,15
2018/1/3 4:21,2.1,1,2.1,2,1.8,16
2018/1/3 4:22,2.1,1,2.2,2,3,1
2018/1/3 4:23,2,16,2.1,2,1.5,16
2018/1/3 4:24,2,16,2,2,4.2,1
2018/1/3 4:25,1.7,16,2,2,3.1,16
2018/1/3 4:26,1.7,1,1.7,2,5.1,16
2018/1/3 4:27,1.8,1,1.8,2,4.5,1
2018/1/3 4:28,1.8,1,1.9,2,5.1,16
2018/1/3 4:29,2,1,2.1,2,9.3,2
2018/1/3 4:30,2,1,2.1,1,5.4,5
2018/1/3 4:31,2.2,1,2.2,1,4.1,3
2018/1/3 4:32,2.2,2,2.2,1,3,4
2018/1/3 4:33,2.3,2,2.3,2,3.5,2
2018/1/3 4:34,2.3,2,2.4,2,2.6,1
2018/1/3 4:35,2.4,2,2.4,2,4.1,16
2018/1/3 4:36,2.3,2,2.4,2,3.1,15
2018/1/3 4:37,2.3,2,2.3,2,5.1,16
2018/1/3 4:38,2.3,2,2.3,2,4.1,16
2018/1/3 4:39,2.5,1,2.5,1,12.2,15
2018/1/3 4:40,2.7,16,2.7,16,7.9,16
2018/1/3 4:41,2.9,16,2.9,16,7,13
2018/1/3 4:42,3,15,3.1,15,3.9,12
2018/1/3 4:43,3.2,15,3.2,15,9.8,16
2018/1/3 4:44,3.4,15,3.4,15,8.1,16
2018/1/3 4:45,3.5,15,3.5,15,5.5,14
2018/1/3 4:46,3.7,14,3.7,14,5.1,14
2018/1/3 4:47,3.7,14,3.7,14,4.9,10
2018/1/3 4:48,3.8,14,3.8,14,7.2,9
2018/1/3 4:49,3.4,13,3.8,14,7.9,10
2018/1/3 4:50,3.1,13,3.4,14,2,12
2018/1/3 4:51,2.7,13,3.1,14,1.1,14
2018/1/3 4:52,2.6,12,2.7,14,2.1,10
2018/1/3 4:53,2.3,12,2.5,14,1.6,8
2018/1/3 4:54,2,11,2.2,14,2.1,10
2018/1/3 4:55,1.7,11,2,14,1.5,9
2018/1/3 4:56,1.4,11,1.7,14,1.5,2
2018/1/3 4:57,1.3,12,1.4,14,3.5,16
2018/1/3 4:58,1.3,14,1.3,14,3.9,16
2018/1/3 4:59,1.1,15,1.2,13,3,16
2018/1/3 5:00,1.1,16,1.1,13,2.4,15
2018/1/3 5:01,1.2,16,1.2,13,2.4,14
2018/1/3 5:02,1.4,16,1.4,12,5.6,2
2018/1/3 5:03,1.8,16,1.8,12,8.5,16
2018/1/3 5:04,2.2,16,2.2,16,8.4,1
2018/1/3 5:05,2.3,16,2.3,16,3.9,16
2018/1/3 5:06,2.8,16,2.8,16,8.9,16
2018/1/3 5:07,2.9,16,2.9,16,6.7,16
2018/1/3 5:08,3,16,3.1,16,6.5,15
2018/1/3 5:09,3.1,16,3.1,16,2.9,14
2018/1/3 5:10,3.2,16,3.2,16,3.5,16
2018/1/3 5:11,3.3,16,3.3,16,2.7,3
2018/1/3 5:12,3.2,16,3.3,16,4.1,3
2018/1/3 5:13,3,16,3.2,16,5.2,16
2018/1/3 5:14,2.9,16,3,16,6.4,16
2018/1/3 5:15,3,16,3,16,4.7,16
2018/1/3 5:16,2.6,16,3,16,3.6,16
2018/1/3 5:17,2.5,16,2.6,16,2.5,14
2018/1/3 5:18,2.3,16,2.5,16,3.7,14
2018/1/3 5:19,2.3,16,2.4,16,3.9,14
2018/1/3 5:20,2.2,16,2.3,16,1.6,13
2018/1/3 5:21,2,16,2.2,16,2.4,15
2018/1/3 5:22,1.8,15,2,16,1.1,16
2018/1/3 5:23,1.6,15,1.8,16,3.8,1
2018/1/3 5:24,1.4,15,1.7,16,4.1,1
2018/1/3 5:25,1.2,15,1.4,16,1.5,7
2018/1/3 5:26,1.2,14,1.2,16,2.7,8
2018/1/3 5:27,1.1,14,1.2,16,2.5,7
2018/1/3 5:28,0.9,13,1.1,16,1.3,6
2018/1/3 5:29,0.9,15,0.9,16,2.9,2
2018/1/3 5:30,0.8,15,0.9,16,1,3
2018/1/3 5:31,0.8,6,0.8,16,0.5,9
2018/1/3 5:32,0.7,4,0.8,15,0.5,15
2018/1/3 5:33,0.8,7,0.8,15,3.2,9
2018/1/3 5:34,0.9,7,0.9,15,6,7
2018/1/3 5:35,1,7,1,15,3.6,10
2018/1/3 5:36,1,7,1.1,14,2.7,8
2018/1/3 5:37,1.1,6,1.1,13,2.4,8
2018/1/3 5:38,1.2,7,1.2,7,2.1,10
2018/1/3 5:39,1.2,8,1.2,7,3.3,8
2018/1/3 5:40,1.3,8,1.3,8,2.5,9
2018/1/3 5:41,1.4,8,1.4,8,2.2,13
2018/1/3 5:42,1.5,8,1.5,8,2.6,11
2018/1/3 5:43,1.5,9,1.5,8,2.2,12
2018/1/3 5:44,1.4,9,1.5,8,3.8,10
2018/1/3 5:45,1.4,9,1.4,8,3.3,9
2018/1/3 5:46,1.4,10,1.4,8,2.9,11
2018/1/3 5:47,1.5,10,1.5,8,4.2,10
2018/1/3 5:48,1.5,10,1.5,8,1.9,6
2018/1/3 5:49,1.4,11,1.4,8,2.5,1
2018/1/3 5:50,1.5,11,1.5,8,3,16
2018/1/3 5:51,1.4,11,1.5,8,1.3,13
2018/1/3 5:52,1.4,11,1.5,8,2.9,8
2018/1/3 5:53,1.5,12,1.5,9,2.1,16
2018/1/3 5:54,1.5,13,1.5,10,6,15
2018/1/3 5:55,1.5,14,1.5,10,5.4,15
2018/1/3 5:56,1.5,14,1.5,10,3.8,12
2018/1/3 5:57,1.5,14,1.6,14,3.2,9
2018/1/3 5:58,1.6,14,1.6,14,2.4,9
2018/1/3 5:59,1.6,12,1.7,13,3,8
2018/1/3 6:00,1.6,12,1.6,13,3.5,10
2018/1/3 6:01,1.7,11,1.7,13,2.6,5
2018/1/3 6:02,1.7,11,1.7,13,2.6,4
2018/1/3 6:03,1.8,11,1.8,11,4.8,10
2018/1/3 6:04,1.9,10,1.9,10,5.2,9
2018/1/3 6:05,1.8,10,1.9,10,3,9
2018/1/3 6:06,1.7,10,1.8,10,1.6,9
2018/1/3 6:07,1.5,10,1.7,10,1.3,15
2018/1/3 6:08,1.4,11,1.5,10,0.8,15
2018/1/3 6:09,1.3,10,1.4,10,0.6,16
2018/1/3 6:10,1.2,10,1.3,10,1.4,8
2018/1/3 6:11,1.1,10,1.2,10,1,10
2018/1/3 6:12,1.1,10,1.1,10,3,8
2018/1/3 6:13,1,11,1.1,10,2.6,12
2018/1/3 6:14,0.9,11,1,10,5.5,15
2018/1/3 6:15,1.1,12,1.1,10,6.2,15
2018/1/3 6:16,1.4,12,1.4,10,5,15
2018/1/3 6:17,1.6,13,1.6,13,6.3,1
2018/1/3 6:18,2.1,13,2.1,13,9.2,1
2018/1/3 6:19,2.7,14,2.7,14,14.8,16
2018/1/3 6:20,3.1,15,3.1,15,10.1,1
2018/1/3 6:21,3.7,15,3.7,15,9.4,15
2018/1/3 6:22,4.2,16,4.2,16,8.2,1
2018/1/3 6:23,4.5,16,4.5,16,6.1,16
2018/1/3 6:24,4.6,16,4.7,16,7.2,16
2018/1/3 6:25,4.4,16,4.6,16,5.5,16
2018/1/3 6:26,4.3,16,4.4,16,3.8,16
2018/1/3 6:27,4.2,16,4.3,16,2.1,15
2018/1/3 6:28,3.8,16,4.1,16,2.2,13
2018/1/3 6:29,3.4,16,3.8,16,6.4,1
2018/1/3 6:30,3.4,16,3.4,16,12.3,16
2018/1/3 6:31,3.4,16,3.4,16,9.5,16
2018/1/3 6:32,3.3,16,3.4,16,6.8,16
2018/1/3 6:33,3.3,16,3.4,16,7,16
2018/1/3 6:34,3.2,16,3.3,16,4.2,15
2018/1/3 6:35,3.1,16,3.2,16,2.4,8
2018/1/3 6:36,2.9,16,3,16,2.4,10
2018/1/3 6:37,3,16,3,16,2.6,16
2018/1/3 6:38,3,1,3,16,2.7,16
2018/1/3 6:39,2.9,16,3,16,2.4,16
2018/1/3 6:40,2.4,16,2.8,16,3.3,16
2018/1/3 6:41,2.1,16,2.4,16,5.6,13
2018/1/3 6:42,1.7,16,2,16,2.9,1
2018/1/3 6:43,1.4,16,1.7,16,1.3,13
2018/1/3 6:44,1.6,16,1.6,16,8.7,16
2018/1/3 6:45,1.7,16,1.7,16,6,15
2018/1/3 6:46,1.8,16,1.8,16,3.8,13
2018/1/3 6:47,2.1,15,2.1,16,5.5,15
2018/1/3 6:48,2.4,15,2.4,1,6.2,15
2018/1/3 6:49,2.7,15,2.7,16,6.9,14
2018/1/3 6:50,2.8,14,2.8,14,3.6,10
2018/1/3 6:51,2.6,14,2.8,14,2.6,9
2018/1/3 6:52,2.6,14,2.6,14,2.7,2
2018/1/3 6:53,2.8,15,2.8,14,5.7,2
2018/1/3 6:54,2.8,15,2.9,15,6.8,1
2018/1/3 6:55,2.9,15,2.9,15,6.5,15
2018/1/3 6:56,3.1,15,3.1,15,6.4,14
2018/1/3 6:57,3.3,15,3.3,15,8.5,16
2018/1/3 6:58,3.1,16,3.3,15,5.5,2
2018/1/3 6:59,3.1,16,3.1,15,7.6,15
2018/1/3 7:00,3.3,16,3.3,15,6.9,1
2018/1/3 7:01,3.6,16,3.6,16,7.8,16
2018/1/3 7:02,3.7,16,3.8,16,6.5,15
2018/1/3 7:03,3.9,16,3.9,16,11.4,16
2018/1/3 7:04,4.2,16,4.2,16,11.7,15
2018/1/3 7:05,4.7,16,4.7,16,10.2,13
2018/1/3 7:06,4.7,15,4.8,15,8.1,12
2018/1/3 7:07,4.3,15,4.7,15,3.8,13
2018/1/3 7:08,4.3,15,4.3,15,6.5,2
2018/1/3 7:09,4.5,15,4.5,15,11.5,16
2018/1/3 7:10,4.4,15,4.4,15,8.1,1
2018/1/3 7:11,4.2,15,4.4,15,6.4,1
2018/1/3 7:12,4.2,16,4.2,15,7.8,16
2018/1/3 7:13,4.3,15,4.4,15,7.8,16
2018/1/3 7:14,4,16,4.3,15,6.2,15
2018/1/3 7:15,3.4,16,3.9,15,6,16
2018/1/3 7:16,3.4,16,3.4,15,4.8,16
2018/1/3 7:17,3.7,16,3.7,15,5.4,15
2018/1/3 7:18,3.8,16,3.8,15,5.6,16
2018/1/3 7:19,3.4,16,3.8,15,5.1,2
2018/1/3 7:20,3.1,16,3.3,15,3.3,4
2018/1/3 7:21,3.1,16,3.1,15,3.7,2
2018/1/3 7:22,3,16,3.1,15,4.5,1
2018/1/3 7:23,2.7,1,2.9,15,3.6,1
2018/1/3 7:24,2.5,1,2.7,16,2.5,15
2018/1/3 7:25,2.3,1,2.5,16,1.9,1
2018/1/3 7:26,2.3,1,2.3,16,5.4,3
2018/1/3 7:27,2.2,1,2.3,16,6,14
2018/1/3 7:28,1.9,1,2.2,16,4.4,10
2018/1/3 7:29,1.8,2,1.9,16,2,4
2018/1/3 7:30,1.9,2,1.9,16,2.4,1
2018/1/3 7:31,1.9,2,1.9,16,3.2,15
2018/1/3 7:32,1.8,1,1.9,16,2.1,2
2018/1/3 7:33,1.7,1,1.8,1,2.1,12
2018/1/3 7:34,1.5,1,1.6,1,1.4,6
2018/1/3 7:35,1.5,16,1.5,1,1,6
2018/1/3 7:36,1.3,16,1.5,1,2,16
2018/1/3 7:37,1,1,1.3,1,1.4,16
2018/1/3 7:38,1,1,1,1,2.9,14
2018/1/3 7:39,1.2,15,1.2,2,4.3,13
2018/1/3 7:40,1.4,14,1.4,2,4.4,12
2018/1/3 7:41,1.4,13,1.4,2,3.6,12
2018/1/3 7:42,1.6,13,1.6,1,3.7,13
2018/1/3 7:43,1.7,13,1.7,13,2.5,13
2018/1/3 7:44,1.8,13,1.8,13,3,11
2018/1/3 7:45,2.1,13,2.1,13,6,11
2018/1/3 7:46,2.2,12,2.2,13,4.1,11
2018/1/3 7:47,2.4,12,2.4,12,4.4,7
2018/1/3 7:48,2.4,11,2.4,12,4.3,10
2018/1/3 7:49,2.2,11,2.4,12,2.9,13
2018/1/3 7:50,2.2,11,2.2,12,4.5,15
2018/1/3 7:51,2.1,12,2.3,12,3.1,14
2018/1/3 7:52,1.9,11,2.1,12,2,5
2018/1/3 7:53,1.9,10,1.9,12,3.1,6
2018/1/3 7:54,1.9,10,1.9,12,3.5,9
2018/1/3 7:55,1.8,9,1.9,12,6.4,15
2018/1/3 7:56,2.1,1,2.1,12,7.5,16
2018/1/3 7:57,2.3,2,2.3,12,6,2
2018/1/3 7:58,2.4,2,2.4,11,5.8,3
2018/1/3 7:59,2.5,2,2.5,2,4.4,15
2018/1/3 8:00,2.3,2,2.5,2,3.1,15
2018/1/3 8:01,2.4,3,2.4,2,4.1,10
2018/1/3 8:02,2.6,4,2.6,4,5,8
2018/1/3 8:03,2.6,3,2.6,4,4.7,9
2018/1/3 8:04,2.7,3,2.7,3,4.2,10
2018/1/3 8:05,2.7,10,2.7,3,4.4,10
2018/1/3 8:06,2.4,10,2.7,3,4.9,10
2018/1/3 8:07,2.2,10,2.3,3,4.1,11
2018/1/3 8:08,2.2,10,2.2,3,4.5,10
2018/1/3 8:09,2,10,2.2,3,2.1,10
2018/1/3 8:10,2,10,2,3,2.9,16
2018/1/3 8:11,1.9,10,2,3,1.5,8
2018/1/3 8:12,1.8,10,1.9,3,4.3,10
2018/1/3 8:13,1.7,10,1.8,3,3.3,11
2018/1/3 8:14,1.5,11,1.7,3,2.1,12
2018/1/3 8:15,1.5,11,1.5,10,2.7,16
2018/1/3 8:16,1.4,12,1.5,10,1.8,16
2018/1/3 8:17,1.2,13,1.4,10,1.6,15
2018/1/3 8:18,1,14,1.2,10,1.5,16
2018/1/3 8:19,1,14,1,10,0.8,1
2018/1/3 8:20,1,13,1,10,2,13
2018/1/3 8:21,1.1,13,1.1,10,3.3,10
2018/1/3 8:22,1.1,13,1.1,10,3.3,10
2018/1/3 8:23,1.1,12,1.1,10,2.9,13
2018/1/3 8:24,1,12,1.1,11,2.7,14
2018/1/3 8:25,1,11,1,12,3.8,10
2018/1/3 8:26,1,11,1,12,1.3,14
2018/1/3 8:27,1,11,1.1,13,1,3
2018/1/3 8:28,1.1,11,1.1,13,1.8,16
2018/1/3 8:29,1.1,11,1.1,13,0.8,14
2018/1/3 8:30,0.9,10,1,13,0.4,6
2018/1/3 8:31,0.8,13,0.9,13,0.5,1
2018/1/3 8:32,0.6,16,0.8,13,0.6,2
2018/1/3 8:33,0.5,1,0.6,12,0,3
2018/1/3 8:34,0.4,1,0.5,11,0,3
2018/1/3 8:35,0.3,2,0.4,11,0.3,4
2018/1/3 8:36,0.3,2,0.3,11,0.8,4
2018/1/3 8:37,0.2,3,0.3,11,0.8,4
2018/1/3 8:38,0.1,3,0.2,11,0.5,5
2018/1/3 8:39,0.1,3,0.1,11,0.4,5
2018/1/3 8:40,0.1,3,0.1,11,0.4,5
2018/1/3 8:41,0.2,4,0.2,14,1.1,9
2018/1/3 8:42,0.2,5,0.2,16,1,8
2018/1/3 8:43,0.2,5,0.2,1,0.6,16
2018/1/3 8:44,0.3,5,0.3,1,1,8
2018/1/3 8:45,0.5,5,0.5,5,4.4,10
2018/1/3 8:46,0.6,6,0.6,5,3.8,10
2018/1/3 8:47,0.8,7,0.8,7,3.1,11
2018/1/3 8:48,0.9,8,0.9,8,2.4,9
2018/1/3 8:49,1,9,1,9,1.9,13
2018/1/3 8:50,1,9,1,9,1.8,10
2018/1/3 8:51,1.1,10,1.1,10,2,13
2018/1/3 8:52,1.2,11,1.2,11,2.1,12
2018/1/3 8:53,1.2,11,1.2,11,1.3,13
2018/1/3 8:54,1.2,11,1.2,11,0.9,12
2018/1/3 8:55,1,11,1.2,11,0.5,5
2018/1/3 8:56,0.9,11,1,11,0.6,15
2018/1/3 8:57,0.8,11,0.9,11,1.6,16
2018/1/3 8:58,0.7,12,0.8,11,1.6,15
2018/1/3 8:59,0.8,12,0.8,11,2.5,11
2018/1/3 9:00,0.9,12,0.9,11,3.2,11
2018/1/3 9:01,1,12,1,11,2.9,13
2018/1/3 9:02,1.1,12,1.1,11,2.9,12
2018/1/3 9:03,1.2,12,1.2,11,3,12
2018/1/3 9:04,1.3,12,1.3,12,2.5,10
2018/1/3 9:05,1.3,11,1.3,12,2,9
2018/1/3 9:06,1.4,11,1.4,11,1.3,8
2018/1/3 9:07,1.3,11,1.4,11,1.3,9
2018/1/3 9:08,1.3,11,1.3,11,2.5,1
2018/1/3 9:09,1.3,11,1.3,11,3.7,16
2018/1/3 9:10,1.3,11,1.3,11,3.2,14
2018/1/3 9:11,1.2,11,1.3,11,1.9,11
2018/1/3 9:12,1.1,11,1.1,11,2,2
2018/1/3 9:13,1,9,1.1,11,2.1,3
2018/1/3 9:14,1,7,1.1,11,2.5,8
2018/1/3 9:15,1.1,9,1.1,11,2,10
2018/1/3 9:16,1.2,11,1.2,11,3.2,10
2018/1/3 9:17,1.4,11,1.4,11,3.5,10
2018/1/3 9:18,1.6,10,1.6,10,3.8,10
2018/1/3 9:19,1.5,10,1.5,10,2.2,9
2018/1/3 9:20,1.5,9,1.5,10,3.7,9
2018/1/3 9:21,1.5,9,1.5,10,3.1,9
2018/1/3 9:22,1.5,9,1.5,10,2.5,10
2018/1/3 9:23,1.4,10,1.5,10,2.1,10
2018/1/3 9:24,1.4,10,1.4,10,1.9,9
2018/1/3 9:25,1.3,10,1.4,10,1.3,8
2018/1/3 9:26,1.1,9,1.3,10,0.4,8
2018/1/3 9:27,0.9,9,1.1,10,0.1,7
2018/1/3 9:28,0.7,8,0.9,10,0.9,6
2018/1/3 9:29,0.7,8,0.7,10,1.3,8
2018/1/3 9:30,0.7,8,0.7,9,2.1,8
2018/1/3 9:31,0.6,8,0.7,9,1.8,10
2018/1/3 9:32,0.6,8,0.6,9,1.8,9
2018/1/3 9:33,0.6,8,0.6,10,3.2,9
2018/1/3 9:34,0.6,8,0.6,10,3.6,10
2018/1/3 9:35,0.8,9,0.8,9,3.2,10
2018/1/3 9:36,1.1,9,1.1,9,3.7,12
2018/1/3 9:37,1.3,9,1.3,9,3.9,11
2018/1/3 9:38,1.3,10,1.3,9,1.3,1
2018/1/3 9:39,1.4,10,1.4,10,2,10
2018/1/3 9:40,1.3,10,1.4,10,3.3,9
2018/1/3 9:41,1.4,10,1.4,10,3.2,10
2018/1/3 9:42,1.5,10,1.5,10,3.3,10
2018/1/3 9:43,1.6,10,1.6,10,3.5,8
2018/1/3 9:44,1.6,10,1.7,10,5.1,9
2018/1/3 9:45,1.6,10,1.7,10,5.1,9
2018/1/3 9:46,1.5,10,1.6,10,3.9,10
2018/1/3 9:47,1.3,10,1.5,10,1.3,11
2018/1/3 9:48,1.3,10,1.3,10,2.5,10
2018/1/3 9:49,1.4,10,1.4,10,2.9,10
2018/1/3 9:50,1.4,10,1.4,10,2.9,8
2018/1/3 9:51,1.3,10,1.4,10,1.1,11
2018/1/3 9:52,1.3,9,1.3,10,3,8
2018/1/3 9:53,1.2,9,1.3,10,2.6,9
2018/1/3 9:54,1.1,9,1.2,10,2.4,10
2018/1/3 9:55,0.9,9,1.1,10,1.4,2
2018/1/3 9:56,0.9,10,0.9,10,0.9,15
2018/1/3 9:57,0.8,10,0.9,10,0.1,14
2018/1/3 9:58,0.7,10,0.8,10,0.3,13
2018/1/3 9:59,0.6,11,0.7,10,0.5,9
2018/1/3 10:00,0.5,11,0.6,9,1.3,6
2018/1/3 10:01,0.6,10,0.6,10,3.1,9
2018/1/3 10:02,0.5,10,0.6,9,0.8,10
2018/1/3 10:03,0.5,10,0.5,9,1.9,8
2018/1/3 10:04,0.4,9,0.5,9,1,8
2018/1/3 10:05,0.3,9,0.4,9,0.1,1
2018/1/3 10:06,0.4,8,0.4,10,1.6,7
2018/1/3 10:07,0.6,8,0.6,10,3.2,7
2018/1/3 10:08,0.8,7,0.8,7,3.5,7
2018/1/3 10:09,0.9,7,0.9,7,2.4,5
2018/1/3 10:10,1.1,7,1.1,7,2.9,8
2018/1/3 10:11,1,7,1.1,7,1.8,7
2018/1/3 10:12,1,7,1,7,0.6,15
2018/1/3 10:13,0.9,7,1,7,0.9,6
2018/1/3 10:14,0.9,7,0.9,7,0.6,9
2018/1/3 10:15,0.9,7,0.9,7,0.1,5
2018/1/3 10:16,0.9,7,0.9,7,2,4
2018/1/3 10:17,0.8,6,0.9,7,1.8,3
2018/1/3 10:18,0.8,6,0.8,7,4.7,15
2018/1/3 10:19,1,5,1,7,6.4,16
2018/1/3 10:20,1.1,3,1.1,7,3.8,13
2018/1/3 10:21,1.3,1,1.3,1,3.8,10
2018/1/3 10:22,1.5,14,1.5,15,3.8,11
2018/1/3 10:23,1.7,14,1.7,14,5.4,15
2018/1/3 10:24,2.1,14,2.1,15,6.1,15
2018/1/3 10:25,2.4,14,2.4,14,4.4,15
2018/1/3 10:26,2.5,14,2.5,14,3.6,16
2018/1/3 10:27,2.7,14,2.7,14,5.4,16
2018/1/3 10:28,2.7,14,2.7,14,5,10
2018/1/3 10:29,2.6,13,2.7,14,3.9,11
2018/1/3 10:30,2.4,13,2.6,14,1.9,10
2018/1/3 10:31,2.3,13,2.4,14,5,12
2018/1/3 10:32,2.2,14,2.3,14,3,13
2018/1/3 10:33,2.1,14,2.2,14,3.5,13
2018/1/3 10:34,2.1,13,2.2,14,5.6,13
2018/1/3 10:35,2,13,2.1,14,3.5,9
2018/1/3 10:36,1.9,12,2,14,2,9
2018/1/3 10:37,1.9,11,2,14,6,9
2018/1/3 10:38,2.1,11,2.1,14,5.8,9
2018/1/3 10:39,2.2,11,2.2,13,4.9,8
2018/1/3 10:40,2.2,11,2.2,13,2.6,10
2018/1/3 10:41,2.1,10,2.2,13,2.9,8
2018/1/3 10:42,2.1,10,2.1,14,3.1,7
2018/1/3 10:43,2.2,9,2.2,14,3.6,10
2018/1/3 10:44,2,9,2.1,11,2.5,10
2018/1/3 10:45,2,9,2,11,3.1,8
2018/1/3 10:46,2,9,2,11,3.1,9
2018/1/3 10:47,1.7,9,1.9,11,1.1,10
2018/1/3 10:48,1.4,9,1.6,11,1.9,16
2018/1/3 10:49,1.3,10,1.4,11,3.2,15
2018/1/3 10:50,1.5,10,1.5,11,3.6,16
2018/1/3 10:51,1.6,11,1.6,10,4.1,15
2018/1/3 10:52,1.8,13,1.8,10,5.4,1
2018/1/3 10:53,1.8,14,1.8,9,3.7,2
2018/1/3 10:54,1.8,15,1.8,9,3.9,14
2018/1/3 10:55,1.9,15,1.9,9,4.8,16
2018/1/3 10:56,2,15,2,15,2.5,15
2018/1/3 10:57,2.1,15,2.1,15,3.9,3
2018/1/3 10:58,2.4,16,2.4,16,7.2,1
2018/1/3 10:59,2.7,16,2.7,16,7.8,16
2018/1/3 11:00,2.9,16,2.9,16,7.7,16
2018/1/3 11:01,2.9,16,3,16,4.5,15
2018/1/3 11:02,2.7,16,2.9,16,4.7,16
2018/1/3 11:03,2.7,16,2.7,16,3.5,1
2018/1/3 11:04,2.8,1,2.8,16,4.8,2
2018/1/3 11:05,2.9,1,2.9,16,7.6,16
2018/1/3 11:06,3.1,1,3.1,1,5,2
2018/1/3 11:07,3.1,1,3.1,1,4.9,1
2018/1/3 11:08,2.9,16,3.1,1,4.3,16
2018/1/3 11:09,2.8,16,2.9,1,6,16
2018/1/3 11:10,2.7,16,2.8,1,6.9,15
2018/1/3 11:11,2.7,16,2.7,1,6.7,13
2018/1/3 11:12,2.9,15,2.9,1,4.3,12
2018/1/3 11:13,3,15,3,1,6.1,9
2018/1/3 11:14,3,15,3.1,1,5.5,7
2018/1/3 11:15,2.9,14,3,1,5.7,1
2018/1/3 11:16,2.9,14,3,1,8.7,2
2018/1/3 11:17,2.9,15,2.9,1,4.8,4
2018/1/3 11:18,2.9,16,2.9,15,6.7,3
2018/1/3 11:19,3,1,3,15,7.9,15
2018/1/3 11:20,3,1,3,15,5.6,16
2018/1/3 11:21,3.2,1,3.2,1,8.5,13
2018/1/3 11:22,3.3,1,3.3,1,5.6,14
2018/1/3 11:23,3.3,16,3.3,1,5.6,14
2018/1/3 11:24,3.9,16,3.9,16,17.8,16
2018/1/3 11:25,4.3,16,4.4,16,14.1,15
2018/1/3 11:26,4.4,15,4.4,16,7.1,16
2018/1/3 11:27,4.4,15,4.4,16,4.1,1
2018/1/3 11:28,4.4,15,4.4,16,7.4,2
2018/1/3 11:29,4.8,16,4.8,15,11.7,16
2018/1/3 11:30,5.3,16,5.3,16,15.2,16